Time,TemperatureF,DewpointF,PressureIn,WindDirection,WindDirectionDegrees,WindSpeedMPH,WindSpeedGustMPH,Humidity,HourlyPrecipIn,Conditions,Clouds,dailyrainin,SoftwareType,DateUTC
2013-09-11 00:00:00,66.0,64.8,29.70,SSW,200,1.0,1.0,96,0.00,,,0.19,Wunderground v.1.15,2013-09-11 04:00:00,
2013-09-11 00:05:00,66.1,64.9,29.70,South,190,2.0,2.0,96,0.00,,,0.00,Wunderground v.1.15,2013-09-11 04:05:00,
2013-09-11 00:10:00,66.2,65.0,29.70,SSW,209,2.0,2.0,96,0.00,,,0.00,Wunderground v.1.15,2013-09-11 04:10:00,
2013-09-11 00:20:00,66.4,65.5,29.69,SSW,204,2.0,2.0,97,0.00,,,0.00,Wunderground v.1.15,2013-09-11 04:20:00,
2013-09-11 00:30:00,66.5,65.6,29.69,South,190,1.0,2.0,97,0.00,,,0.00,Wunderground v.1.15,2013-09-11 04:30:00,
2013-09-11 00:35:00,66.5,65.6,29.69,South,190,1.0,2.0,97,0.00,,,0.00,Wunderground v.1.15,2013-09-11 04:35:00,
2013-09-11 00:45:00,66.4,65.5,29.69,SSW,205,1.0,3.0,97,0.00,,,0.00,Wunderground v.1.15,2013-09-11 04:45:00,
2013-09-11 00:50:00,66.6,65.7,29.69,SSW,213,1.0,2.0,97,0.00,,,0.00,Wunderground v.1.15,2013-09-11 04:50:00,
2013-09-11 01:00:00,66.8,65.9,29.68,South,184,2.0,2.0,97,0.00,,,0.00,Wunderground v.1.15,2013-09-11 05:00:00,
2013-09-11 01:05:00,66.7,65.8,29.68,South,186,2.0,2.0,97,0.00,,,0.00,Wunderground v.1.15,2013-09-11 05:05:00,
2013-09-11 01:15:00,66.7,65.8,29.68,South,186,1.0,2.0,97,0.00,,,0.00,Wunderground v.1.15,2013-09-11 05:15:00,
2013-09-11 01:25:00,66.7,65.8,29.68,South,182,1.0,1.0,97,0.00,,,0.00,Wunderground v.1.15,2013-09-11 05:25:00,
2013-09-11 01:30:00,66.8,65.9,29.68,SSE,164,1.0,1.0,97,0.00,,,0.00,Wunderground v.1.15,2013-09-11 05:30:00,
2013-09-11 01:35:00,66.7,65.8,29.68,South,186,1.0,1.0,97,0.00,,,0.00,Wunderground v.1.15,2013-09-11 05:35:00,
2013-09-11 01:45:00,66.8,65.9,29.68,South,187,0.0,1.0,97,0.00,,,0.00,Wunderground v.1.15,2013-09-11 05:45:00,
2013-09-11 01:50:00,66.8,65.9,29.68,South,184,1.0,1.0,97,0.00,,,0.00,Wunderground v.1.15,2013-09-11 05:50:00,
2013-09-11 01:55:00,66.9,66.0,29.68,SSW,202,1.0,2.0,97,0.00,,,0.00,Wunderground v.1.15,2013-09-11 05:55:00,
2013-09-11 02:05:00,67.1,66.2,29.69,South,177,2.0,2.0,97,0.00,,,0.00,Wunderground v.1.15,2013-09-11 06:05:00,
2013-09-11 02:10:00,67.1,66.2,29.69,SSW,211,2.0,2.0,97,0.00,,,0.00,Wunderground v.1.15,2013-09-11 06:10:00,
2013-09-11 02:15:00,67.0,66.1,29.68,South,171,2.0,2.0,97,0.00,,,0.00,Wunderground v.1.15,2013-09-11 06:15:00,
2013-09-11 02:20:00,67.1,66.2,29.68,SSE,164,2.0,4.0,97,0.00,,,0.00,Wunderground v.1.15,2013-09-11 06:20:00,
2013-09-11 02:30:00,67.1,66.5,29.68,South,177,3.0,3.0,98,0.00,,,0.00,Wunderground v.1.15,2013-09-11 06:30:00,
2013-09-11 02:40:00,67.1,66.2,29.67,SSW,200,1.0,1.0,97,0.00,,,0.00,Wunderground v.1.15,2013-09-11 06:40:00,
2013-09-11 02:50:00,67.1,66.2,29.67,South,175,1.0,1.0,97,0.00,,,0.00,Wunderground v.1.15,2013-09-11 06:50:00,
2013-09-11 02:55:00,67.0,66.1,29.67,South,183,1.0,1.0,97,0.00,,,0.00,Wunderground v.1.15,2013-09-11 06:55:00,
2013-09-11 03:00:00,67.0,66.1,29.67,South,191,1.0,1.0,97,0.00,,,0.00,Wunderground v.1.15,2013-09-11 07:00:00,
2013-09-11 03:10:00,67.0,66.4,29.67,South,182,2.0,2.0,98,0.00,,,0.00,Wunderground v.1.15,2013-09-11 07:10:00,
2013-09-11 03:20:00,67.1,66.5,29.67,South,178,3.0,3.0,98,0.00,,,0.00,Wunderground v.1.15,2013-09-11 07:20:00,
2013-09-11 03:30:00,67.1,66.5,29.67,South,175,3.0,3.0,98,0.00,,,0.00,Wunderground v.1.15,2013-09-11 07:30:00,
2013-09-11 03:40:00,67.0,66.4,29.67,South,188,3.0,3.0,98,0.00,,,0.00,Wunderground v.1.15,2013-09-11 07:40:00,
2013-09-11 03:50:00,67.0,66.4,29.67,SSW,205,2.0,2.0,98,0.00,,,0.00,Wunderground v.1.15,2013-09-11 07:50:00,
2013-09-11 04:00:00,67.0,66.4,29.68,South,190,1.0,2.0,98,0.00,,,0.00,Wunderground v.1.15,2013-09-11 08:00:00,
2013-09-11 04:10:00,67.0,66.4,29.68,South,178,1.0,1.0,98,0.00,,,0.00,Wunderground v.1.15,2013-09-11 08:10:00,
2013-09-11 04:20:00,67.0,66.4,29.68,South,178,0.0,0.0,98,0.00,,,0.00,Wunderground v.1.15,2013-09-11 08:20:00,
2013-09-11 04:30:00,67.0,66.4,29.68,South,178,1.0,2.0,98,0.00,,,0.00,Wunderground v.1.15,2013-09-11 08:30:00,
2013-09-11 04:40:00,67.0,66.4,29.68,South,178,1.0,1.0,98,0.00,,,0.00,Wunderground v.1.15,2013-09-11 08:40:00,
2013-09-11 04:50:00,66.9,66.3,29.68,South,178,0.0,0.0,98,0.00,,,0.00,Wunderground v.1.15,2013-09-11 08:50:00,
2013-09-11 04:55:00,66.9,66.3,29.68,South,178,1.0,1.0,98,0.00,,,0.00,Wunderground v.1.15,2013-09-11 08:55:00,
2013-09-11 05:00:00,66.9,66.3,29.68,South,178,1.0,1.0,98,0.00,,,0.00,Wunderground v.1.15,2013-09-11 09:00:00,
2013-09-11 05:05:00,66.8,66.2,29.68,South,178,0.0,1.0,98,0.00,,,0.00,Wunderground v.1.15,2013-09-11 09:05:00,
2013-09-11 05:10:00,66.7,66.1,29.68,South,178,0.0,0.0,98,0.00,,,0.00,Wunderground v.1.15,2013-09-11 09:10:00,
2013-09-11 05:15:00,66.7,66.1,29.68,South,178,1.0,1.0,98,0.00,,,0.00,Wunderground v.1.15,2013-09-11 09:15:00,
2013-09-11 05:25:00,66.5,65.9,29.68,South,177,1.0,3.0,98,0.00,,,0.00,Wunderground v.1.15,2013-09-11 09:25:00,
2013-09-11 05:35:00,66.7,66.1,29.68,SSW,196,1.0,4.0,98,0.00,,,0.00,Wunderground v.1.15,2013-09-11 09:35:00,
2013-09-11 05:45:00,66.8,66.2,29.68,South,184,2.0,2.0,98,0.00,,,0.00,Wunderground v.1.15,2013-09-11 09:45:00,
2013-09-11 05:50:00,66.8,66.2,29.68,SSW,192,2.0,2.0,98,0.00,,,0.00,Wunderground v.1.15,2013-09-11 09:50:00,
2013-09-11 06:00:00,66.6,66.0,29.69,SSW,195,2.0,2.0,98,0.00,,,0.00,Wunderground v.1.15,2013-09-11 10:00:00,
2013-09-11 06:10:00,66.5,65.9,29.69,South,183,2.0,2.0,98,0.00,,,0.00,Wunderground v.1.15,2013-09-11 10:10:00,
2013-09-11 06:20:00,66.6,66.0,29.69,SSW,193,2.0,3.0,98,0.00,,,0.00,Wunderground v.1.15,2013-09-11 10:20:00,
2013-09-11 06:30:00,66.3,65.7,29.69,South,190,2.0,6.0,98,0.00,,,0.00,Wunderground v.1.15,2013-09-11 10:30:00,
2013-09-11 06:40:00,66.7,66.1,29.69,South,178,3.0,3.0,98,0.00,,,0.00,Wunderground v.1.15,2013-09-11 10:40:00,
2013-09-11 06:50:00,66.4,65.8,29.70,WSW,242,1.0,1.0,98,0.00,,,0.00,Wunderground v.1.15,2013-09-11 10:50:00,
2013-09-11 07:00:00,66.2,65.6,29.70,SSW,200,1.0,1.0,98,0.00,,,0.00,Wunderground v.1.15,2013-09-11 11:00:00,
2013-09-11 07:05:00,66.2,65.6,29.70,SSW,201,1.0,1.0,98,0.00,,,0.00,Wunderground v.1.15,2013-09-11 11:05:00,
2013-09-11 07:10:00,66.2,65.6,29.70,South,186,1.0,3.0,98,0.00,,,0.00,Wunderground v.1.15,2013-09-11 11:10:00,
2013-09-11 07:20:00,66.4,65.8,29.70,South,175,2.0,3.0,98,0.00,,,0.00,Wunderground v.1.15,2013-09-11 11:20:00,
2013-09-11 07:25:00,66.5,65.9,29.70,South,188,2.0,3.0,98,0.00,,,0.00,Wunderground v.1.15,2013-09-11 11:25:00,
2013-09-11 07:35:00,66.8,66.2,29.70,SSW,198,2.0,2.0,98,0.00,,,0.00,Wunderground v.1.15,2013-09-11 11:35:00,
2013-09-11 07:40:00,67.0,66.4,29.70,South,183,2.0,4.0,98,0.00,,,0.00,Wunderground v.1.15,2013-09-11 11:40:00,
2013-09-11 07:50:00,67.4,66.8,29.70,South,175,3.0,3.0,98,0.00,,,0.00,Wunderground v.1.15,2013-09-11 11:50:00,
2013-09-11 08:00:00,67.7,67.1,29.70,SSE,159,2.0,2.0,98,0.00,,,0.00,Wunderground v.1.15,2013-09-11 12:00:00,
2013-09-11 08:10:00,68.0,67.4,29.69,South,184,2.0,4.0,98,0.00,,,0.00,Wunderground v.1.15,2013-09-11 12:10:00,
2013-09-11 08:15:00,68.1,67.5,29.69,South,190,2.0,4.0,98,0.00,,,0.00,Wunderground v.1.15,2013-09-11 12:15:00,
2013-09-11 08:25:00,68.3,67.7,29.69,South,170,2.0,3.0,98,0.00,,,0.00,Wunderground v.1.15,2013-09-11 12:25:00,
2013-09-11 08:35:00,69.1,68.5,29.69,South,173,2.0,3.0,98,0.00,,,0.00,Wunderground v.1.15,2013-09-11 12:35:00,
2013-09-11 08:40:00,69.4,68.8,29.69,SSW,205,2.0,2.0,98,0.00,,,0.00,Wunderground v.1.15,2013-09-11 12:40:00,
2013-09-11 08:50:00,70.3,69.7,29.69,SSW,196,3.0,3.0,98,0.00,,,0.00,Wunderground v.1.15,2013-09-11 12:50:00,
2013-09-11 09:00:00,71.0,70.4,29.69,SSW,195,4.0,5.0,98,0.00,,,0.00,Wunderground v.1.15,2013-09-11 13:00:00,
2013-09-11 09:10:00,72.0,71.4,29.69,SSW,199,3.0,3.0,98,0.00,,,0.00,Wunderground v.1.15,2013-09-11 13:10:00,
2013-09-11 09:20:00,73.4,71.9,29.69,South,183,2.0,2.0,95,0.00,,,0.00,Wunderground v.1.15,2013-09-11 13:20:00,
2013-09-11 09:25:00,74.1,71.9,29.69,South,174,2.0,2.0,93,0.00,,,0.00,Wunderground v.1.15,2013-09-11 13:25:00,
2013-09-11 09:30:00,74.7,71.9,29.69,South,176,2.0,3.0,91,0.00,,,0.00,Wunderground v.1.15,2013-09-11 13:30:00,
2013-09-11 09:40:00,76.1,72.3,29.69,South,183,3.0,3.0,88,0.00,,,0.00,Wunderground v.1.15,2013-09-11 13:40:00,
2013-09-11 09:50:00,77.6,72.7,29.68,SSW,207,2.0,2.0,85,0.00,,,0.00,Wunderground v.1.15,2013-09-11 13:50:00,
2013-09-11 10:00:00,78.7,73.1,29.68,SSW,205,3.0,6.0,83,0.00,,,0.00,Wunderground v.1.15,2013-09-11 14:00:00,
2013-09-11 10:10:00,79.3,72.6,29.68,SSW,194,3.0,3.0,80,0.00,,,0.00,Wunderground v.1.15,2013-09-11 14:10:00,
2013-09-11 10:20:00,79.9,72.4,29.68,SSW,200,3.0,4.0,78,0.00,,,0.00,Wunderground v.1.15,2013-09-11 14:20:00,
2013-09-11 10:25:00,80.0,72.9,29.68,SSW,208,3.0,4.0,79,0.00,,,0.00,Wunderground v.1.15,2013-09-11 14:25:00,
2013-09-11 10:30:00,80.5,73.8,29.67,WNW,283,2.0,3.0,80,0.00,,,0.00,Wunderground v.1.15,2013-09-11 14:30:00,
2013-09-11 10:40:00,81.3,72.2,29.67,SSW,204,2.0,5.0,74,0.00,,,0.00,Wunderground v.1.15,2013-09-11 14:40:00,
2013-09-11 10:50:00,81.6,71.7,29.67,NNW,329,4.0,4.0,72,0.00,,,0.00,Wunderground v.1.15,2013-09-11 14:50:00,
2013-09-11 10:55:00,82.0,71.7,29.67,WSW,246,4.0,8.0,71,0.00,,,0.00,Wunderground v.1.15,2013-09-11 14:55:00,
2013-09-11 11:05:00,82.1,70.5,29.66,WNW,292,6.0,8.0,68,0.00,,,0.00,Wunderground v.1.15,2013-09-11 15:05:00,
2013-09-11 11:15:00,82.6,71.4,29.66,WNW,288,4.0,5.0,69,0.00,,,0.00,Wunderground v.1.15,2013-09-11 15:15:00,
2013-09-11 11:20:00,82.9,70.8,29.66,West,263,4.0,4.0,67,0.00,,,0.00,Wunderground v.1.15,2013-09-11 15:20:00,
2013-09-11 11:30:00,83.5,71.4,29.65,SW,221,4.0,4.0,67,0.00,,,0.00,Wunderground v.1.15,2013-09-11 15:30:00,
2013-09-11 11:40:00,83.7,71.6,29.65,WNW,293,5.0,5.0,67,0.00,,,0.00,Wunderground v.1.15,2013-09-11 15:40:00,
2013-09-11 11:50:00,84.5,70.0,29.65,SW,227,3.0,3.0,62,0.00,,,0.00,Wunderground v.1.15,2013-09-11 15:50:00,
2013-09-11 12:00:00,85.1,70.1,29.65,SSW,206,2.0,3.0,61,0.00,,,0.00,Wunderground v.1.15,2013-09-11 16:00:00,
2013-09-11 12:10:00,85.3,70.3,29.64,West,276,4.0,5.0,61,0.00,,,0.00,Wunderground v.1.15,2013-09-11 16:10:00,
2013-09-11 12:15:00,85.4,70.9,29.64,SSE,157,4.0,5.0,62,0.00,,,0.00,Wunderground v.1.15,2013-09-11 16:15:00,
2013-09-11 12:25:00,85.9,71.4,29.64,South,189,3.0,3.0,62,0.00,,,0.00,Wunderground v.1.15,2013-09-11 16:25:00,
2013-09-11 12:30:00,86.3,68.8,29.64,West,263,3.0,3.0,56,0.00,,,0.00,Wunderground v.1.15,2013-09-11 16:30:00,
2013-09-11 12:40:00,86.4,68.8,29.64,SSW,200,4.0,7.0,56,0.00,,,0.00,Wunderground v.1.15,2013-09-11 16:40:00,
2013-09-11 12:45:00,86.4,69.4,29.63,WNW,288,5.0,7.0,57,0.00,,,0.00,Wunderground v.1.15,2013-09-11 16:45:00,
2013-09-11 12:50:00,86.5,70.0,29.63,SSW,209,5.0,5.0,58,0.00,,,0.00,Wunderground v.1.15,2013-09-11 16:50:00,
2013-09-11 13:00:00,86.6,69.0,29.63,WNW,289,5.0,8.0,56,0.00,,,0.00,Wunderground v.1.15,2013-09-11 17:00:00,
2013-09-11 13:10:00,87.1,69.5,29.63,NW,314,4.0,5.0,56,0.00,,,0.00,Wunderground v.1.15,2013-09-11 17:10:00,
2013-09-11 13:15:00,87.3,70.7,29.62,NW,311,4.0,5.0,58,0.00,,,0.00,Wunderground v.1.15,2013-09-11 17:15:00,
2013-09-11 13:20:00,87.2,69.1,29.62,WNW,283,4.0,6.0,55,0.00,,,0.00,Wunderground v.1.15,2013-09-11 17:20:00,
2013-09-11 13:30:00,87.0,68.3,29.62,West,269,6.0,6.0,54,0.00,,,0.00,Wunderground v.1.15,2013-09-11 17:30:00,
2013-09-11 13:40:00,87.7,70.1,29.62,West,276,3.0,3.0,56,0.00,,,0.00,Wunderground v.1.15,2013-09-11 17:40:00,
2013-09-11 13:45:00,87.4,68.2,29.62,SSE,165,5.0,6.0,53,0.00,,,0.00,Wunderground v.1.15,2013-09-11 17:45:00,
2013-09-11 13:50:00,87.4,69.8,29.62,SSW,200,5.0,8.0,56,0.00,,,0.00,Wunderground v.1.15,2013-09-11 17:50:00,
2013-09-11 13:55:00,87.6,69.4,29.62,WNW,289,5.0,8.0,55,0.00,,,0.00,Wunderground v.1.15,2013-09-11 17:55:00,
2013-09-11 14:00:00,87.6,68.4,29.62,South,177,7.0,7.0,53,0.00,,,0.00,Wunderground v.1.15,2013-09-11 18:00:00,
2013-09-11 14:05:00,87.7,69.5,29.62,SW,223,6.0,7.0,55,0.00,,,0.00,Wunderground v.1.15,2013-09-11 18:05:00,
2013-09-11 14:10:00,87.2,68.5,29.62,NW,322,6.0,6.0,54,0.00,,,0.00,Wunderground v.1.15,2013-09-11 18:10:00,
2013-09-11 14:20:00,87.0,71.9,29.62,West,259,4.0,5.0,61,0.00,,,0.00,Wunderground v.1.15,2013-09-11 18:20:00,
2013-09-11 14:30:00,87.3,69.7,29.61,SW,236,4.0,4.0,56,0.00,,,0.00,Wunderground v.1.15,2013-09-11 18:30:00,
2013-09-11 14:35:00,87.4,69.8,29.62,SSW,198,4.0,7.0,56,0.00,,,0.00,Wunderground v.1.15,2013-09-11 18:35:00,
2013-09-11 14:40:00,87.3,70.7,29.61,WNW,284,5.0,5.0,58,0.00,,,0.00,Wunderground v.1.15,2013-09-11 18:40:00,
2013-09-11 14:50:00,87.5,71.4,29.62,SW,234,4.0,4.0,59,0.00,,,0.00,Wunderground v.1.15,2013-09-11 18:50:00,
2013-09-11 14:55:00,87.6,70.0,29.61,WSW,244,4.0,4.0,56,0.00,,,0.00,Wunderground v.1.15,2013-09-11 18:55:00,
2013-09-11 15:05:00,87.3,69.7,29.61,WSW,249,5.0,5.0,56,0.00,,,0.00,Wunderground v.1.15,2013-09-11 19:05:00,
2013-09-11 15:15:00,87.5,69.9,29.60,SSE,167,4.0,8.0,56,0.00,,,0.00,Wunderground v.1.15,2013-09-11 19:15:00,
2013-09-11 15:20:00,87.4,70.8,29.60,South,180,5.0,5.0,58,0.00,,,0.00,Wunderground v.1.15,2013-09-11 19:20:00,
2013-09-11 15:25:00,87.4,71.3,29.60,ESE,116,4.0,5.0,59,0.00,,,0.00,Wunderground v.1.15,2013-09-11 19:25:00,
2013-09-11 15:30:00,87.3,70.2,29.59,WSW,250,4.0,4.0,57,0.00,,,0.00,Wunderground v.1.15,2013-09-11 19:30:00,
2013-09-11 15:40:00,86.4,70.4,29.59,SW,228,5.0,5.0,59,0.00,,,0.00,Wunderground v.1.15,2013-09-11 19:40:00,
2013-09-11 15:45:00,86.4,70.4,29.59,WSW,257,3.0,5.0,59,0.00,,,0.00,Wunderground v.1.15,2013-09-11 19:45:00,
2013-09-11 15:50:00,86.6,71.5,29.58,SSE,165,3.0,3.0,61,0.00,,,0.00,Wunderground v.1.15,2013-09-11 19:50:00,
2013-09-11 16:00:00,86.4,70.4,29.58,SSE,161,6.0,6.0,59,0.00,,,0.00,Wunderground v.1.15,2013-09-11 20:00:00,
2013-09-11 16:10:00,86.1,71.1,29.58,SE,144,5.0,5.0,61,0.00,,,0.00,Wunderground v.1.15,2013-09-11 20:10:00,
2013-09-11 16:20:00,86.3,72.2,29.57,South,184,3.0,3.0,63,0.00,,,0.00,Wunderground v.1.15,2013-09-11 20:20:00,
2013-09-11 16:30:00,85.1,70.6,29.58,SW,236,4.0,4.0,62,0.00,,,0.00,Wunderground v.1.15,2013-09-11 20:30:00,
2013-09-11 16:35:00,84.8,70.8,29.57,SW,233,4.0,4.0,63,0.00,,,0.00,Wunderground v.1.15,2013-09-11 20:35:00,
2013-09-11 16:40:00,84.4,71.3,29.57,South,189,3.0,3.0,65,0.00,,,0.00,Wunderground v.1.15,2013-09-11 20:40:00,
2013-09-11 16:45:00,83.9,70.9,29.57,SW,221,3.0,6.0,65,0.00,,,0.00,Wunderground v.1.15,2013-09-11 20:45:00,
2013-09-11 16:55:00,83.2,71.5,29.56,SW,225,4.0,4.0,68,0.00,,,0.00,Wunderground v.1.15,2013-09-11 20:55:00,
2013-09-11 17:00:00,82.6,72.2,29.56,SSW,194,3.0,3.0,71,0.00,,,0.00,Wunderground v.1.15,2013-09-11 21:00:00,
2013-09-11 17:05:00,81.5,73.2,29.58,SSW,213,2.0,3.0,76,0.00,,,0.00,Wunderground v.1.15,2013-09-11 21:05:00,
2013-09-11 17:10:00,77.9,67.7,29.57,ENE,69,5.0,8.0,71,0.22,,,0.02,Wunderground v.1.15,2013-09-11 21:10:00,
2013-09-11 17:15:00,74.0,66.7,29.57,West,270,6.0,8.0,78,0.22,,,0.04,Wunderground v.1.15,2013-09-11 21:15:00,
2013-09-11 17:20:00,72.0,66.9,29.56,West,273,4.0,4.0,84,0.16,,,0.05,Wunderground v.1.15,2013-09-11 21:20:00,
2013-09-11 17:25:00,70.9,66.8,29.56,WSW,256,2.0,4.0,87,0.13,,,0.06,Wunderground v.1.15,2013-09-11 21:25:00,
2013-09-11 17:30:00,70.9,67.2,29.57,SSW,206,3.0,3.0,88,0.08,,,0.06,Wunderground v.1.15,2013-09-11 21:30:00,
2013-09-11 17:40:00,70.5,67.7,29.62,NW,314,2.0,3.0,91,0.04,,,0.07,Wunderground v.1.15,2013-09-11 21:40:00,